EHI
0 0 0 0 0 0 0 0 0 0 0 0 0 0 0 0 0 0 0 0 0 0 0 0 0 0 0 0 0 0 0 0 0 0 0 0 0 0 0 0 0 0 0
0 0 0 0 0 0 0 0 0 0 0 0 0 0 0 0 0 0 0 0 0 0 0 0 0 0 0 0 0 0 0 0 0 0 0 0 0 0 0 0 0 0 0
0 0 0 0 0 0 0 0 0 0 0 0 0 0 0 0 0 0 0 0 0 0 1 1 1 0 0 0 0 0 0 0 0 0 0 0 0 0 0 0 0 0 0
0 0 0 0 0 0 0 0 0 0 0 0 0 0 0 0 0 0 0 0 0 0 1 2 2 1 0 0 0 0 0 0 0 0 0 0 0 0 0 0 0 0 0
0 0 0 0 0 0 0 0 0 0 0 0 0 0 0 0 0 0 0 0 0 0 1 2 2 1 0 0 0 0 0 0 0 0 0 0 0 0 0 0 0 0 0
0 0 0 0 0 0 0 0 0 0 0 0 0 0 0 0 0 0 0 0 0 0 0 1 1 1 0 0 0 0 0 0 0 0 0 0 0 0 0 0 0 0 0
0 0 0 0 0 0 0 0 0 0 0 0 0 0 0 0 0 0 0 0 0 0 0 0 0 0 0 0 0 0 0 0 0 0 0 0 0 0 0 0 0 0 0
0 0 0 0 0 0 0 0 0 0 0 0 0 0 0 0 0 0 0 0 0 0 0 0 0 0 0 0 0 0 0 0 0 0 0 0 1 1 0 0 0 0 0
0 0 0 0 0 0 0 0 0 0 0 0 0 0 0 0 0 0 0 0 0 0 0 0 0 0 0 0 0 0 0 0 0 0 0 0 1 1 0 0 0 0 0
0 0 0 0 0 0 0 0 0 0 0 0 0 0 0 0 0 0 0 0 0 0 0 0 0 0 0 0 0 0 0 0 0 0 0 0 1 1 0 0 0 0 0
0 0 0 0 0 0 0 0 0 0 0 0 0 0 0 0 0 0 0 0 0 0 0 0 0 0 0 0 0 0 0 0 0 0 0 0 0 0 0 0 0 0 0
0 0 0 0 0 0 0 0 0 0 0 0 0 0 0 0 0 0 0 0 0 0 0 0 0 0 0 0 0 0 0 0 0 0 0 0 0 0 0 0 0 0 0
0 0 0 0 0 0 0 0 0 0 0 0 0 0 0 0 0 0 0 0 0 0 0 0 0 0 0 0 0 0 0 0 0 0 0 0 0 0 0 0 0 0 0
0 0 0 0 0 0 0 0 0 0 0 0 0 0 0 0 0 0 0 0 0 0 0 0 0 0 0 0 0 0 0 0 0 0 0 0 0 0 0 0 0 0 0
0 0 0 0 0 0 0 0 0 0 0 0 0 0 0 0 0 0 0 0 0 0 0 0 0 0 0 0 0 0 0 0 0 0 0 0 0 0 0 0 0 0 0
0 0 0 0 0 0 0 0 0 0 0 0 0 0 0 0 0 0 0 0 0 0 0 0 0 0 0 0 0 0 0 0 0 0 0 0 0 0 0 0 0 0 0
0 0 0 0 0 0 0 0 0 0 0 0 0 0 0 0 0 0 0 0 0 0 0 0 0 0 0 0 0 0 0 0 0 0 0 0 0 0 0 0 0 0 0
0 0 0 0 0 0 0 0 0 0 0 0 0 0 0 0 0 0 0 0 0 0 0 0 0 0 0 0 0 0 0 0 0 0 0 0 0 0 0 0 0 0 0
0 0 0 0 0 0 0 0 0 0 0 0 0 0 0 0 0 0 0 0 0 0 0 0 0 0 0 0 0 0 0 0 0 0 0 0 0 0 0 0 0 0 0
0 0 0 0 0 0 0 0 0 0 0 0 0 0 0 0 0 0 0 0 0 0 0 0 0 0 0 0 0 0 0 0 0 0 0 0 0 0 0 0 0 0 0
0 0 0 0 0 0 0 0 0 0 0 0 0 0 0 0 0 0 0 0 0 0 0 0 0 0 0 0 0 0 0 0 0 0 0 0 0 0 0 0 0 0 0
0 0 0 0 0 0 0 0 0 0 0 0 0 0 0 0 0 0 0 0 0 0 0 0 0 0 0 0 0 0 0 0 0 0 0 0 0 0 0 0 0 0 0
0 0 0 0 0 0 0 0 0 0 0 0 0 0 0 0 0 0 0 0 0 0 0 0 0 0 0 0 0 0 0 0 0 0 0 0 0 0 0 0 0 0 0
0 0 0 0 0 0 0 0 0 0 0 0 0 0 0 0 0 0 0 0 0 0 0 0 0 0 0 0 0 0 0 0 0 0 0 0 0 0 0 0 0 0 0
0 0 0 0 0 0 0 0 0 0 0 0 0 0 0 0 0 0 0 0 0 0 0 0 0 0 0 0 0 0 0 0 0 0 0 0 0 0 0 0 0 0 0
0 0 0 0 0 0 0 0 0 0 0 0 0 0 0 0 0 0 0 0 0 0 0 0 0 0 0 0 0 0 0 0 0 0 0 0 0 0 0 0 0 0 0
Wind_Speed
2 2 2 2 2 2 2 2 3 4 4 4 3 2 2 1 0 1 1 5 6 6 5 5 6 6 6 6 6 6 7 7 8 9 9 10 11 12 12 13 13 13 13
2 3 3 3 3 2 2 2 3 3 3 2 3 3 2 1 1 1 1 2 4 4 4 4 5 6 6 6 6 6 7 7 8 9 9 9 10 11 12 12 12 13 13
3 3 2 3 3 3 3 3 3 3 3 3 3 3 2 1 1 1 1 1 1 2 4 4 4 5 6 6 6 6 7 8 8 9 9 9 9 10 11 12 12 12 12
4 3 3 3 3 3 3 2 3 3 3 3 3 3 2 1 1 0 0 1 1 1 2 3 4 4 5 6 7 7 8 8 8 9 9 9 9 10 11 11 11 12 12
4 3 2 2 3 3 3 3 2 2 2 3 2 2 2 2 2 1 1 0 1 1 1 2 3 3 4 5 6 7 8 9 9 9 9 9 9 9 10 11 11 11 11
3 3 2 3 3 3 3 3 3 3 2 2 3 3 3 3 2 2 1 1 0 1 1 1 1 2 3 4 5 6 8 9 9 10 10 9 9 9 10 10 11 11 11
3 3 3 3 3 3 3 3 2 3 3 2 3 3 4 4 3 3 2 2 1 0 1 1 1 0 1 3 4 5 7 9 9 10 10 10 9 9 10 10 11 11 11
2 2 3 2 2 2 4 4 3 2 3 3 2 2 3 5 4 4 3 2 2 1 1 1 1 1 1 1 2 4 5 7 8 9 10 10 10 10 9 10 10 11 11
1 2 2 2 2 2 2 2 2 3 2 3 2 2 2 1 3 3 3 3 2 1 1 0 1 1 1 1 1 2 4 5 7 9 9 10 10 10 10 10 10 10 10
1 1 1 2 2 2 2 2 2 1 2 2 2 2 1 2 1 2 3 3 3 2 1 1 0 0 1 1 1 2 4 5 6 8 9 10 10 11 10 10 10 10 10
2 1 1 1 2 1 1 2 2 2 1 1 1 1 2 2 1 1 2 3 3 2 2 1 0 0 0 1 1 2 4 5 5 6 7 9 10 11 11 10 10 10 10
2 2 1 0 1 1 1 1 1 2 1 1 1 1 1 1 0 1 0 1 2 2 2 2 1 0 0 1 1 3 4 4 5 5 5 7 8 9 10 11 11 11 11
1 2 1 1 1 1 1 1 1 2 1 1 1 0 0 1 1 1 1 0 1 2 2 2 1 0 1 1 1 2 3 4 5 5 5 5 6 7 8 10 10 11 11
2 2 2 2 2 1 1 1 1 1 1 1 1 1 0 1 0 1 2 1 1 2 2 2 2 1 1 1 2 2 2 4 5 5 5 5 6 6 6 7 8 9 9
1 1 1 1 2 2 1 0 1 1 1 1 1 1 1 1 1 1 1 2 2 1 2 2 2 2 1 1 2 2 2 4 5 5 5 5 6 6 6 6 7 7 6
1 1 1 1 2 2 2 1 1 1 1 1 1 1 1 1 1 0 0 1 2 2 2 2 2 2 2 2 3 2 2 3 5 5 6 6 6 6 6 6 6 7 6
1 1 1 1 2 2 2 1 2 2 2 2 2 1 2 2 1 1 0 0 1 2 2 2 2 1 1 1 1 1 1 2 2 5 6 6 6 6 7 7 6 7 7
2 2 1 1 2 2 2 1 2 2 2 3 2 2 3 2 2 1 1 1 1 2 2 2 2 1 2 2 2 2 2 2 2 5 6 7 7 6 7 7 7 7 7
2 2 2 2 2 2 2 2 2 2 3 3 3 3 3 2 3 2 2 2 2 1 2 2 2 1 1 1 1 1 1 1 2 3 6 6 7 7 7 7 7 7 7
3 3 3 2 2 2 1 2 2 2 3 4 4 4 4 4 5 4 3 3 2 2 1 2 2 2 2 1 1 1 1 1 1 1 2 3 4 6 7 7 8 8 8
4 3 3 3 3 2 2 2 2 2 3 4 4 4 5 6 7 6 5 4 4 3 2 2 2 2 2 1 2 2 2 1 2 1 1 1 2 2 3 5 6 8 8
4 4 4 4 4 4 6 5 3 2 2 3 5 5 6 6 7 9 10 10 8 6 5 3 3 4 4 3 3 2 2 1 2 2 2 2 2 3 3 3 6 8 8
4 4 4 4 4 5 8 8 7 3 2 3 4 5 5 5 6 5 8 9 9 11 11 7 6 6 5 5 4 4 4 4 4 3 2 2 2 3 3 3 7 8 8
3 3 3 4 3 6 10 9 9 3 3 4 4 4 4 6 5 5 5 5 6 6 8 7 7 7 7 6 6 6 5 3 2 2 3 3 2 2 2 2 6 8 8
3 3 3 4 4 5 9 10 8 3 3 5 5 5 5 5 10 9 5 6 6 7 8 10 10 10 11 10 7 4 3 3 3 3 3 3 2 2 1 2 3 6 7
2 3 3 3 3 4 8 10 9 2 3 4 5 5 7 9 12 11 5 6 7 7 5 5 6 8 8 8 11 8 7 5 3 3 4 4 3 3 2 2 2 3 3
Wind_Direction
31 23 21 14 359 359 4 357 358 353 349 345 350 8 359 336 230 193 218 202 191 188 180 178 174 167 163 157 153 145 135 127 120 117 114 113 115 116 117 118 120 120 120
51 37 25 14 6 358 1 7 6 357 343 345 357 3 357 354 308 206 205 219 209 194 185 183 181 175 171 165 160 152 143 136 130 125 122 119 120 121 122 122 122 124 124
52 45 30 13 353 354 7 10 8 6 2 0 355 349 354 354 342 275 205 195 216 211 198 188 185 184 179 172 164 159 152 146 139 136 132 127 127 128 129 126 125 127 128
51 46 30 6 352 8 14 11 10 5 357 354 345 340 349 344 359 320 179 170 181 207 212 201 192 190 191 180 168 163 160 155 150 146 144 140 138 137 136 136 134 133 134
45 49 33 6 9 23 15 5 13 7 352 347 337 349 354 354 350 19 65 143 182 187 194 216 202 200 200 187 177 171 166 163 160 155 152 150 149 147 145 144 143 140 139
44 44 30 11 19 28 13 6 359 358 349 342 357 6 357 355 1 15 23 37 100 171 171 191 202 219 200 189 186 180 173 169 167 163 160 157 155 154 154 151 150 148 147
49 50 32 18 21 27 12 6 5 1 352 357 26 4 357 6 21 15 14 26 34 50 126 155 173 165 204 197 194 185 179 175 173 169 166 163 161 159 159 160 159 158 157
37 57 47 32 23 26 17 16 25 12 353 12 48 44 8 355 357 9 11 24 23 23 35 138 142 178 192 170 194 184 181 177 175 173 174 171 166 165 165 166 166 164 164
14 39 42 44 32 43 17 5 26 39 8 356 37 96 88 342 326 340 360 5 12 21 2 40 146 174 169 144 177 190 186 182 181 180 178 176 173 172 171 171 173 170 171
338 12 38 38 32 30 9 347 31 35 50 7 353 20 139 174 132 334 335 346 360 14 9 24 64 172 154 138 165 173 182 183 185 186 185 182 180 179 178 179 180 181 181
320 325 9 35 27 11 350 355 9 18 47 60 7 354 15 35 72 122 326 332 348 344 344 354 24 101 164 157 167 181 185 185 189 191 191 189 188 186 184 185 187 188 190
309 305 309 354 7 357 335 339 359 5 8 38 32 43 78 63 13 97 242 316 330 322 336 347 350 274 178 156 198 189 193 192 195 195 194 193 192 190 191 193 194 196 198
281 279 272 253 272 276 296 342 8 355 353 9 352 315 227 208 192 160 152 283 334 325 344 341 326 272 197 154 200 202 200 201 200 198 197 197 196 196 198 201 202 203 204
247 256 247 243 249 255 288 345 358 324 343 349 348 327 304 285 203 171 168 153 17 343 343 312 318 289 243 198 211 199 209 204 204 199 195 196 198 198 199 203 206 207 208
255 253 244 248 260 264 266 279 312 306 333 319 315 311 293 287 275 214 173 162 157 199 286 290 300 294 256 214 209 194 199 210 207 204 201 200 198 196 200 202 203 200 198
275 275 287 280 280 279 277 276 287 283 290 291 278 300 298 287 293 276 179 171 162 174 229 264 261 271 268 236 206 198 213 214 216 210 204 201 199 198 198 195 194 188 186
296 286 284 287 281 284 289 269 269 279 273 287 303 280 278 274 280 284 247 174 173 165 209 273 276 282 266 257 227 225 214 208 219 216 211 208 206 203 198 195 192 191 191
320 312 313 310 295 289 278 247 268 277 261 264 271 271 278 275 258 258 244 235 226 198 189 244 281 289 260 241 222 226 227 213 216 221 216 214 211 206 202 199 197 196 194
348 350 359 333 313 300 292 275 262 268 263 256 253 246 254 249 249 242 229 234 243 232 195 205 258 273 278 267 229 246 240 256 229 219 216 218 212 205 204 202 199 198 196
5 353 346 332 324 315 325 326 316 302 291 281 268 253 248 235 236 231 226 224 221 221 210 208 241 259 263 265 199 229 255 271 258 238 225 208 201 201 205 204 201 199 198
10 358 358 351 342 341 349 353 334 334 323 313 304 289 271 257 247 233 221 212 203 205 209 213 230 241 243 221 220 216 222 250 271 237 212 217 192 198 208 211 210 206 202
1 6 4 1 359 356 352 0 4 344 336 329 319 312 300 285 281 268 242 221 203 200 206 206 215 222 231 217 208 199 199 204 255 230 179 225 186 208 214 210 209 204 203
2 2 359 5 356 343 356 359 360 3 341 327 321 322 321 315 301 302 276 252 234 225 213 200 208 219 219 211 194 200 204 205 224 215 166 221 200 217 222 216 205 202 201
356 356 358 357 357 354 360 359 359 3 335 322 316 314 318 319 315 308 298 275 255 247 234 221 218 223 221 212 198 199 200 207 243 229 175 207 203 208 212 213 207 200 199
2 360 357 3 6 349 2 6 8 356 339 326 321 325 321 313 323 322 309 289 277 268 255 239 233 234 231 222 204 183 184 187 227 234 194 188 194 186 199 221 217 203 197
1 6 8 3 3 349 359 9 11 8 345 330 324 322 327 327 324 326 304 287 277 272 264 255 247 246 239 233 219 207 198 196 203 229 207 181 182 164 198 231 207 199 196